Flag for U.S.A. Weather past 2 weeks in Thousand Oaks, California, U.S.A.

Now
69 °F

Clear.


Feels Like: 69 °F
Forecast: 63 / 79 °F
Wind: 3 mph from North

Location: Camarillo Airport

Current Time: Sep 2, 2015 at 1:50:14 AM

Latest Report: Sep 2, 2015 at 12:55 AM


Visibility: 10 mi

Pressure: 29.97 "Hg

Humidity: 73%

Dew point: 60 °F

Location of Thousand OaksLocation

Historic Weather in Thousand Oaks — Graph

°F

Thousand Oaks temperature yesterday

Maximum temperature yesterday: 80 °F (at 12:55 PM)
Minimum temperature yesterday: 63 °F (at 5:55 AM)
Average temperature yesterday: 71 °F

Past Weeks' High & Low Weather Summary

 TemperatureHumidityPressure
High95 °F (Aug 28, 2:55 PM)87% (Aug 19, 7:55 AM)30.00 "Hg (Aug 19, 7:55 AM)
Low61 °F (Aug 24, 5:55 AM)26% (Aug 28, 2:55 PM)29.83 "Hg (Aug 28, 6:55 PM)
Average73 °F68%29.92 "Hg
* Reported Aug 18 12:55 AM — Sep 2 12:55 AM, Thousand Oaks, Weather by CustomWeather, © 2015

Note: Actual official high and low records may vary slightly from our data, if they occured in-between our weather recording intervals... More about our weather records

Advertising

Thousand Oaks weather history for previous 24 hours

 ConditionsComfort  
Time TempWeatherWind HumidityBarometerVisibility
12:55 AM
Wed, Sep 2
69 °FClear.3 mph73%29.97 "Hg10 mi
11:55 PM
Tue, Sep 1
69 °FPassing clouds.5 mph73%29.97 "Hg10 mi
10:55 PM70 °FClear.5 mph73%29.96 "Hg10 mi
9:55 PM70 °FPassing clouds.5 mph73%29.96 "Hg10 mi
8:55 PM71 °FOvercast.9 mph71%29.95 "Hg10 mi
7:55 PM72 °FSunny.9 mph71%29.93 "Hg10 mi
6:55 PM73 °FSunny.7 mph69%29.91 "Hg10 mi
5:55 PM74 °FSunny.9 mph64%29.90 "Hg10 mi
4:55 PM76 °FSunny.12 mph60%29.90 "Hg10 mi
3:55 PM78 °FSunny.9 mph54%29.90 "Hg10 mi
1:55 PM79 °FSunny.14 mph54%29.92 "Hg10 mi
12:55 PM80 °FSunny.10 mph52%29.92 "Hg10 mi
11:55 AM79 °FSunny.12 mph54%29.93 "Hg9 mi
10:55 AM77 °FPassing clouds.6 mph54%29.96 "Hg10 mi
9:55 AM76 °FScattered clouds.5 mph56%29.95 "Hg10 mi
8:55 AM71 °FOvercast.5 mph71%29.95 "Hg9 mi
7:55 AM68 °FPartly sunny.No wind76%29.95 "Hg8 mi
6:55 AM65 °FOvercast.6 mph81%29.94 "Hg7 mi
5:55 AM63 °FClear.3 mph84%29.92 "Hg8 mi
4:55 AM64 °FClear.3 mph78%29.92 "Hg8 mi
3:55 AM65 °FClear.No wind81%29.92 "Hg8 mi
2:55 AM66 °FPassing clouds.No wind84%29.91 "Hg7 mi
1:55 AM66 °FPassing clouds.3 mph81%29.92 "Hg7 mi
Weather by CustomWeather, © 2015

See weather overviewHow to use our weather pages